Flag Weather past 2 weeks in Providence, Rhode Island, U.S.A.

Now
36 °F

Partly sunny.


Feels Like: 27 °F
Forecast: 24 / 35 °F
Wind: 15 mph from Northwest

Location: Green State Airport

Current Time: Nov 28, 2014 at 1:43:28 PM

Latest Report: Nov 28, 2014 at 12:51 PM


Visibility: 10 mi

Pressure: 30.06 "Hg

Humidity: 54%

Dew point: 21 °F

Location of ProvidenceLocation

Historic Weather in Providence — Graph

°F

Providence temperature yesterday

Maximum temperature yesterday: 40 °F (at 10:51 AM)
Minimum temperature yesterday: 32 °F (at 7:58 PM)
Average temperature yesterday: 35 °F

Past Weeks' High & Low Weather Summary

 TemperatureHumidityPressure
High65 °F (Nov 24, 11:51 AM)100% (Nov 17, 3:51 PM)30.47 "Hg (Nov 17, 3:51 PM)
Low20 °F (Nov 22, 3:51 AM)29% (Nov 19, 2:51 PM)29.44 "Hg (Nov 17, 10:02 PM)
Average39 °F64%30.01 "Hg
* Reported Nov 13 12:51 PM — Nov 28 12:51 PM, Providence, Weather by CustomWeather, © 2014

Note: Actual official high and low records may vary slightly from our data, if they occured in-between our weather recording intervals... More about our weather records

Advertising

Providence weather history for previous 24 hours

 ConditionsComfort  
Time TempWeatherWind HumidityBarometerVisibility
12:51 PM
Nov 28
36 °FPartly sunny.15 mph54%30.06 "Hg10 mi
11:51 AM34 °FPartly sunny.14 mph59%30.07 "Hg10 mi
10:51 AM36 °FScattered clouds.12 mph59%30.07 "Hg10 mi
9:51 AM32 °FScattered clouds.14 mph69%30.07 "Hg10 mi
8:51 AM32 °FBroken clouds.12 mph66%30.06 "Hg10 mi
7:51 AM31 °FPartly sunny.8 mph79%30.05 "Hg10 mi
7:04 AM31 °FLight snow. Partly sunny.9 mph82%30.03 "Hg7 mi
6:51 AM31 °FLight snow. Partly sunny.12 mph79%30.03 "Hg7 mi
5:51 AM31 °FOvercast.14 mph79%30.01 "Hg10 mi
4:51 AM31 °FOvercast.10 mph82%29.99 "Hg10 mi
3:51 AM31 °FOvercast.13 mph82%30.00 "Hg10 mi
2:51 AM31 °FOvercast.10 mph82%29.99 "Hg10 mi
1:51 AM31 °FMostly cloudy.9 mph82%29.99 "Hg10 mi
12:51 AM31 °FOvercast.12 mph85%29.99 "Hg10 mi
11:51 PM
Nov 27
32 °FLight snow. Overcast.8 mph85%30.00 "Hg9 mi
10:51 PM32 °FMostly cloudy.8 mph88%30.01 "Hg10 mi
9:51 PM32 °FLight snow. Ice fog.7 mph92%30.00 "Hg4 mi
8:51 PM32 °FLight snow. Mostly cloudy.9 mph92%30.01 "Hg7 mi
7:58 PM32 °FLight snow. Ice fog.7 mph92%30.00 "Hg2 mi
6:51 PM33 °FLight snow. Fog.7 mph92%30.00 "Hg2 mi
5:51 PM35 °FLight snow. Mostly cloudy.7 mph82%29.98 "Hg4 mi
4:51 PM36 °FOvercast.8 mph79%29.98 "Hg10 mi
3:51 PM37 °FMore clouds than sun.9 mph79%29.96 "Hg10 mi
2:51 PM38 °FLight rain. Mostly cloudy.7 mph79%29.95 "Hg10 mi
1:51 PM40 °FOvercast.5 mph68%29.94 "Hg10 mi
Weather by CustomWeather, © 2014

See weather overviewHow to use our weather pages